Skip Page Navigation
NASA JPL Caltech
NASA Logo - Jet Propulsion Laboratory + View the NASA Portal
+ Near-Earth Object (NEO) Program
Search JPL
JPL Home Earth Solar System Stars & Galaxies Technology
JPL Solar System Dynamics
BODIES ORBITS EPHEMERIDES TOOLS PHYSICAL DATA DISCOVERY FAQ SITE MAP
JPL Small-Body Database Browser
Search: [ help ]  
17411 (1988 DF3)
Classification: Main-belt Asteroid          SPK-ID: 2017411
Ephemeris | Orbit Diagram | Orbital Elements | Physical Parameters | Discovery Circumstances | Close-Approach Data ]

[ show orbit diagram ]
Orbital Elements at Epoch 2457000.5 (2014-Dec-09.0) TDB
Reference: JPL 15 (heliocentric ecliptic J2000)
 Element Value Uncertainty (1-sigma)   Units 
e .127934267153062 6.0338e-08  
a 2.243805867869542 1.3053e-08 AU
q 1.956746208529912 1.347e-07 AU
i 6.58427943061965 5.3276e-06 deg
node 265.9491032198278 5.7549e-05 deg
peri 120.9032827050176 6.172e-05 deg
M 107.6579011279846 2.3018e-05 deg
tp 2456633.370101767122
(2013-Dec-06.87010177)
7.7803e-05 JED
period 1227.655025586233
3.36
1.0713e-05
2.933e-08
d
yr
n .2932419877710287 2.5589e-09 deg/d
Q 2.530865527209172 1.4723e-08 AU
  Orbit Determination Parameters
   # obs. used (total)      959  
   data-arc span      9895 days (27.09 yr)  
   first obs. used      1988-02-22  
   last obs. used      2015-03-27  
   planetary ephem.      DE431  
   SB-pert. ephem.      SB431-BIG16  
   condition code      0  
   fit RMS      .51765  
   data source      ORB  
   producer      Otto Matic  
   solution date      2015-Apr-07 16:58:14  

Additional Information
 Earth MOID = .971141 AU 
 T_jup = 3.613 
[ show covariance matrix ]

Ephemeris | Orbit Diagram | Orbital Elements | Physical Parameters | Discovery Circumstances | Close-Approach Data ]

Physical Parameter Table
Parameter Symbol Value Units Sigma Reference Notes
absolute magnitude H 14.3 mag n/a MPO279698  

17411 (1988 DF3)          Discovered 1988-Feb-22 by McNaught, R. H. at Siding Spring
Reference: 20001013/Numbers.arcLast Updated: 2004-04-19

[ show close-approach data ]
Alternate Designations
 1988 DF3 = 1998 DH4 
Ephemeris | Orbit Diagram | Orbital Elements | Physical Parameters | Discovery Circumstances | Close-Approach Data ]
ABOUT SSD CREDITS/AWARDS PRIVACY/COPYRIGHT GLOSSARY LINKS
FirstGov 2015-May-29 08:18 UT
(server date/time)  
NASA Home Page
Site Manager:   Ryan S. Park
Webmaster  Alan B. Chamberlin